Borger, TX

9:14 AM CDT on July 28, 2017 (GMT -0500)
Hutchinson County

Weather History for KBGD - December, 2013

Change the Weather History Date:

Monday, December 9, 2013

  Actual Average Record
Temperature  
Mean Temperature 20 °F 39 °F  
Max Temperature 24 °F 51 °F 79 °F (1996)
Min Temperature 15 °F 28 °F -1 °F (1978)
Degree Days  
Heating Degree Days 45 26  
Month to date heating degree days 287 219  
Since 1 July heating degree days 1001 936  
Cooling Degree Days 0 0  
Month to date cooling degree days 0 0  
Year to date cooling degree days 2220 1839  
Moisture  
Dew Point 8 °F    
Average Humidity 65    
Maximum Humidity 80    
Minimum Humidity 50    
Precipitation  
Precipitation 0.00 in 0.01 in 0.19 in (2007)
Month to date precipitation T 0.16  
Year to date precipitation 14.93 21.11  
Snow  
Snow T in - - ()
Month to date snowfall T  
Since 1 July snowfall 3.8  
Snow Depth 0.00 in    
Sea Level Pressure  
Sea Level Pressure 30.29 in    
Wind  
Wind Speed 7 mph (NE)    
Max Wind Speed 13 mph    
Max Gust Speed 16 mph    
Visibility 10 miles    
Events      
T = Trace of Precipitation, MM = Missing Value Source: NWS Daily Summary

Daily Weather History Graph

Daily Weather History Graph

Search for Another Location

Airport or City:

Trip Planner

Search our weather history database for the weather conditions in past years. The results will help you decide how hot, cold, wet, or windy it might be!

Date:

Astronomy

Dec. 09, 2013 Rise Set
Actual Time 7:43 AM CST 5:32 PM CST
Civil Twilight 7:15 AM CST 6:00 PM CST
Nautical Twilight 6:43 AM CST 6:32 PM CST
Astronomical Twilight 6:12 AM CST 7:03 PM CST
Moon 12:49 PM CST (12/9) 12:13 AM CST (12/9)
Length of Visible Light 10h 44m
Length of Day
9h 48m
Waxing Crescent, 51% of the Moon is Illuminated
Dec 9
Waxing Crescent
Dec 17
Full
Dec 25
Last Quarter
Jan 1
New
Jan 7
First Quarter

Hourly Weather History & Observations

Time (CST) Temp. Windchill Dew Point Humidity Pressure Visibility Wind Dir Wind Speed Gust Speed Precip Events Conditions
12:51 AM 18.0 °F 7.7 °F 10.9 °F 74% 30.15 in 10.0 mi NE 8.1 mph - N/A   Overcast
1:51 AM 18.0 °F 7.7 °F 9.0 °F 68% 30.16 in 10.0 mi NE 8.1 mph - N/A   Overcast
2:51 AM 18.0 °F 8.7 °F 9.0 °F 68% 30.19 in 10.0 mi NE 6.9 mph - N/A   Partly Cloudy
3:51 AM 18.0 °F 7.7 °F 9.0 °F 68% 30.19 in 10.0 mi NNE 8.1 mph - N/A   Mostly Cloudy
4:51 AM 18.0 °F 6.1 °F 7.0 °F 62% 30.19 in 10.0 mi NNE 10.4 mph - N/A   Mostly Cloudy
5:51 AM 18.0 °F 7.7 °F 6.1 °F 60% 30.23 in 10.0 mi NE 8.1 mph - N/A   Mostly Cloudy
6:51 AM 18.0 °F 6.1 °F 6.1 °F 60% 30.27 in 10.0 mi NE 10.4 mph - N/A   Clear
7:51 AM 18.0 °F 7.7 °F 6.1 °F 60% 30.29 in 10.0 mi NNE 8.1 mph - N/A   Clear
8:51 AM 18.0 °F 7.7 °F 6.1 °F 60% 30.32 in 10.0 mi NE 8.1 mph - N/A   Clear
9:51 AM 18.0 °F 6.9 °F 6.1 °F 60% 30.34 in 10.0 mi ENE 9.2 mph - N/A   Partly Cloudy
10:51 AM 19.0 °F 10.0 °F 7.0 °F 59% 30.35 in 10.0 mi NE 6.9 mph - N/A   Mostly Cloudy
11:51 AM 19.9 °F 9.3 °F 8.1 °F 60% 30.33 in 10.0 mi ENE 9.2 mph - N/A   Mostly Cloudy
12:51 PM 19.9 °F 10.1 °F 10.0 °F 65% 30.31 in 8.0 mi North 8.1 mph - N/A   Overcast
1:51 PM 19.9 °F 12.1 °F 8.1 °F 60% 30.29 in 10.0 mi Variable 5.8 mph - N/A   Overcast
2:22 PM 21.9 °F 15.7 °F 8.1 °F 55% 30.18 in 10.0 mi Variable 4.6 mph - N/A   Overcast
2:35 PM 21.9 °F 17.2 °F 8.1 °F 55% 30.19 in 10.0 mi Variable 3.5 mph - N/A   Mostly Cloudy
2:51 PM 21.9 °F 15.7 °F 8.1 °F 55% 30.29 in 10.0 mi WNW 4.6 mph - N/A   Overcast
3:30 PM 21.9 °F - 7.0 °F 53% 30.19 in 10.0 mi Calm Calm - N/A   Overcast
3:51 PM 23.0 °F 17.0 °F 7.0 °F 50% 30.30 in 10.0 mi Variable 4.6 mph - N/A   Mostly Cloudy
4:51 PM 23.0 °F 18.4 °F 7.0 °F 50% 30.30 in 10.0 mi West 3.5 mph - N/A   Clear
5:51 PM 21.0 °F - 7.0 °F 55% 30.32 in 10.0 mi Calm Calm - N/A   Clear
6:51 PM 21.0 °F 14.6 °F 7.0 °F 55% 30.33 in 10.0 mi SSW 4.6 mph - N/A   Clear
7:51 PM 19.0 °F 12.3 °F 8.1 °F 62% 30.37 in 10.0 mi South 4.6 mph - N/A   Clear
8:51 PM 19.0 °F 11.1 °F 8.1 °F 62% 30.39 in 10.0 mi SSW 5.8 mph - N/A   Clear
9:51 PM 17.1 °F - 7.0 °F 65% 30.41 in 10.0 mi Calm Calm - N/A   Clear
10:51 PM 16.0 °F 5.3 °F 8.1 °F 71% 30.41 in 10.0 mi SW 8.1 mph - N/A   Clear
11:51 PM 17.1 °F 10.0 °F 8.1 °F 68% 30.41 in 10.0 mi SW 4.6 mph - N/A   Clear